DLH6VR LGAV-EDDF

Flight info

Callsign DLH6VR
Flight time 2h 35m
Altitude 34000
Route KOR UL53 IXONI DCT YNN UL611 TUMBO DCT OVVER DCT RODON DCT VAKSU DCT MONFA DCT SOTOV DCT NIKWU Q163 OLASO/N0448F320 Q163 HAFUN/N0409F240 Q163 ETASA T163 SPESA SPESA5B
Aircraft A321/M-SDE3FGHIRWY/LB1

Departure

Time 2026-05-04 11:13
Airport Athens Eleftherios Venizelos International Airport (LGAV)

Arrival

Time 2026-05-04 13:49
Airport Frankfurt Main Airport (EDDF)
Time Latitude Longitude Altitude Speed Heading
2026-05-04 10:43 37.93795 23.95017 303 ft 0 kts 307°
2026-05-04 11:01 37.93795 23.95018 301 ft 1 kts 307°
2026-05-04 11:02 37.93781 23.95041 302 ft 4 kts 307°
2026-05-04 11:02 37.93768 23.95062 300 ft 4 kts 301°
2026-05-04 11:05 37.93768 23.95121 300 ft 0 kts 217°
2026-05-04 11:08 37.93632 23.94991 302 ft 13 kts 217°
2026-05-04 11:10 37.93125 23.94784 302 ft 17 kts 217°
2026-05-04 11:12 37.92518 23.94358 308 ft 9 kts 127°
2026-05-04 11:12 37.92485 23.94414 309 ft 7 kts 127°
2026-05-04 11:12 37.92489 23.94451 308 ft 6 kts 37°
2026-05-04 11:12 37.92658 23.94617 306 ft 65 kts 37°
2026-05-04 11:13 37.93203 23.95135 297 ft 128 kts 37°
2026-05-04 11:13 37.94056 23.95942 292 ft 175 kts 38°
2026-05-04 11:13 37.95036 23.96866 894 ft 174 kts 38°
2026-05-04 11:13 37.96006 23.97793 1558 ft 178 kts 32°
2026-05-04 11:14 37.97052 23.98782 1736 ft 199 kts 32°
2026-05-04 11:14 37.98224 23.99890 1919 ft 221 kts 33°
2026-05-04 11:14 37.99512 24.01115 2337 ft 234 kts 34°
2026-05-04 11:16 38.09356 24.09065 6766 ft 255 kts 349°
2026-05-04 11:16 38.10988 24.08197 7304 ft 259 kts 321°
2026-05-04 11:16 38.12100 24.06385 7870 ft 266 kts 294°
2026-05-04 11:17 38.12470 24.04076 8504 ft 273 kts 272°
2026-05-04 11:17 38.12322 24.01640 9116 ft 278 kts 270°
2026-05-04 11:19 38.11563 23.82144 11233 ft 364 kts 270°
2026-05-04 11:19 38.11416 23.78922 11726 ft 368 kts 270°
2026-05-04 11:19 38.11270 23.75662 12229 ft 371 kts 270°
2026-05-04 11:19 38.11124 23.72378 12752 ft 373 kts 270°
2026-05-04 11:20 38.10975 23.69087 13286 ft 375 kts 270°
2026-05-04 11:20 38.10877 23.65769 13775 ft 376 kts 276°
2026-05-04 11:20 38.11386 23.62550 14226 ft 372 kts 294°
2026-05-04 11:20 38.12647 23.59704 14675 ft 370 kts 311°
2026-05-04 11:22 38.24692 23.42044 17796 ft 386 kts 313°
2026-05-04 11:22 38.26448 23.39457 18291 ft 387 kts 313°
2026-05-04 11:23 38.28218 23.36849 18680 ft 389 kts 313°
2026-05-04 11:23 38.29990 23.34240 19074 ft 390 kts 313°
2026-05-04 11:24 38.40588 23.18430 21634 ft 393 kts 313°
2026-05-04 11:25 38.42311 23.15714 22040 ft 394 kts 311°
2026-05-04 11:25 38.44005 23.13022 22417 ft 394 kts 311°
2026-05-04 11:25 38.45726 23.10288 22767 ft 395 kts 312°
2026-05-04 11:26 38.49158 23.04879 23795 ft 389 kts 313°
2026-05-04 11:27 38.61240 22.85916 25717 ft 400 kts 313°
2026-05-04 11:28 38.62999 22.83133 25868 ft 404 kts 313°
2026-05-04 11:28 38.64765 22.80340 26090 ft 406 kts 312°
2026-05-04 11:28 38.66545 22.77527 26294 ft 407 kts 313°
2026-05-04 11:28 38.68300 22.74756 26620 ft 405 kts 313°
2026-05-04 11:29 38.70073 22.71951 26873 ft 405 kts 313°
2026-05-04 11:29 38.71848 22.69135 27096 ft 407 kts 312°
2026-05-04 11:29 38.73627 22.66310 27298 ft 408 kts 312°
2026-05-04 11:29 38.75434 22.63439 27533 ft 407 kts 312°
2026-05-04 11:31 38.87767 22.43795 29432 ft 402 kts 312°
2026-05-04 11:33 38.99987 22.24196 30957 ft 402 kts 312°
2026-05-04 11:33 39.01733 22.21388 31168 ft 401 kts 312°
2026-05-04 11:33 39.03474 22.18586 31391 ft 401 kts 312°
2026-05-04 11:34 39.05214 22.15789 31613 ft 400 kts 312°
2026-05-04 11:34 39.06950 22.12993 31820 ft 399 kts 312°
2026-05-04 11:34 39.08674 22.10208 32031 ft 398 kts 312°
2026-05-04 11:34 39.10396 22.07423 32275 ft 397 kts 312°
2026-05-04 11:35 39.12113 22.04641 32460 ft 396 kts 312°
2026-05-04 11:35 39.13829 22.01861 32672 ft 396 kts 312°
2026-05-04 11:35 39.15538 21.99091 32871 ft 396 kts 312°
2026-05-04 11:35 39.17251 21.96318 33068 ft 395 kts 312°
2026-05-04 11:36 39.18965 21.93539 33286 ft 394 kts 312°
2026-05-04 11:36 39.20667 21.90778 33479 ft 394 kts 312°
2026-05-04 11:36 39.22354 21.88039 33658 ft 394 kts 312°
2026-05-04 11:36 39.24056 21.85273 33852 ft 393 kts 311°
2026-05-04 11:37 39.25755 21.82512 34035 ft 393 kts 312°
2026-05-04 11:37 39.27481 21.79703 34123 ft 395 kts 312°
2026-05-04 11:37 39.30876 21.74159 34148 ft 397 kts 311°
2026-05-04 11:38 39.34317 21.68534 34151 ft 397 kts 311°
2026-05-04 11:38 39.37741 21.62924 34151 ft 397 kts 311°
2026-05-04 11:39 39.41163 21.57300 34146 ft 398 kts 311°
2026-05-04 11:41 39.53149 21.37568 34150 ft 398 kts 311°
2026-05-04 11:41 39.56566 21.31915 34162 ft 398 kts 311°
2026-05-04 11:42 39.59980 21.26255 34149 ft 398 kts 311°
2026-05-04 11:42 39.63389 21.20593 34092 ft 398 kts 311°
2026-05-04 11:43 39.66796 21.14938 34039 ft 398 kts 311°
2026-05-04 11:43 39.70204 21.09268 33977 ft 398 kts 311°
2026-05-04 11:44 39.73606 21.03588 33939 ft 398 kts 311°
2026-05-04 11:44 39.76999 20.97911 33918 ft 398 kts 311°
2026-05-04 11:45 39.80393 20.92215 33910 ft 398 kts 311°
2026-05-04 11:45 39.83772 20.86509 33922 ft 398 kts 311°
2026-05-04 11:46 39.87142 20.80773 33949 ft 399 kts 310°
2026-05-04 11:46 39.89945 20.75993 33953 ft 400 kts 310°
2026-05-04 11:47 39.93321 20.70236 34001 ft 400 kts 310°
2026-05-04 11:47 39.96706 20.64464 34048 ft 400 kts 310°
2026-05-04 11:48 39.99979 20.58869 34103 ft 401 kts 310°
2026-05-04 11:48 40.03354 20.53083 34114 ft 400 kts 310°
2026-05-04 11:49 40.06818 20.47458 34127 ft 398 kts 318°
2026-05-04 11:49 40.11150 20.43028 34106 ft 394 kts 324°
2026-05-04 11:50 40.15574 20.38768 34124 ft 394 kts 324°
2026-05-04 11:50 40.19991 20.34494 34121 ft 395 kts 324°
2026-05-04 11:51 40.24415 20.30218 34117 ft 395 kts 324°
2026-05-04 11:51 40.28825 20.25959 34120 ft 395 kts 324°
2026-05-04 11:52 40.33256 20.21667 34114 ft 395 kts 324°
2026-05-04 11:52 40.37649 20.17408 34123 ft 395 kts 324°
2026-05-04 11:53 40.42070 20.13102 34094 ft 396 kts 324°
2026-05-04 11:53 40.46493 20.08791 34106 ft 396 kts 324°
2026-05-04 11:55 40.64152 19.91495 34128 ft 396 kts 324°
2026-05-04 11:56 40.68567 19.87154 34125 ft 396 kts 324°
2026-05-04 11:56 40.72988 19.82809 34122 ft 397 kts 324°
2026-05-04 11:57 40.77411 19.78452 34106 ft 396 kts 324°
2026-05-04 11:57 40.81796 19.74120 34127 ft 396 kts 324°
2026-05-04 11:58 40.86205 19.69754 34132 ft 396 kts 324°
2026-05-04 11:58 40.90626 19.65374 34152 ft 396 kts 324°
2026-05-04 11:59 40.95028 19.61003 34148 ft 396 kts 324°
2026-05-04 11:59 40.99438 19.56612 34148 ft 397 kts 324°
2026-05-04 12:00 41.03853 19.52216 34155 ft 397 kts 324°
2026-05-04 12:00 41.08261 19.47821 34156 ft 397 kts 324°
2026-05-04 12:01 41.12675 19.43399 34140 ft 397 kts 323°
2026-05-04 12:02 41.28089 19.27945 34162 ft 397 kts 323°
2026-05-04 12:03 41.32487 19.23509 34160 ft 397 kts 323°
2026-05-04 12:03 41.36877 19.19071 34161 ft 397 kts 323°
2026-05-04 12:04 41.41247 19.14644 34167 ft 397 kts 323°
2026-05-04 12:04 41.45644 19.10194 34141 ft 397 kts 323°
2026-05-04 12:05 41.50048 19.05720 34147 ft 398 kts 323°
2026-05-04 12:05 41.54455 19.01216 34149 ft 398 kts 323°
2026-05-04 12:06 41.58854 18.96704 34164 ft 399 kts 323°
2026-05-04 12:06 41.63232 18.92211 34164 ft 399 kts 323°
2026-05-04 12:07 41.67630 18.87696 34154 ft 399 kts 323°
2026-05-04 12:07 41.72038 18.83162 34153 ft 400 kts 323°
2026-05-04 12:08 41.76438 18.78616 34167 ft 400 kts 323°
2026-05-04 12:08 41.80852 18.74059 34142 ft 401 kts 322°
2026-05-04 12:09 41.85275 18.69487 34148 ft 401 kts 322°
2026-05-04 12:09 41.89696 18.64893 34160 ft 402 kts 322°
2026-05-04 12:10 41.94123 18.60292 34158 ft 402 kts 322°
2026-05-04 12:10 41.98560 18.55677 34159 ft 403 kts 322°
2026-05-04 12:11 42.02811 18.50791 34163 ft 403 kts 315°
2026-05-04 12:11 42.06725 18.45371 34163 ft 404 kts 315°
2026-05-04 12:12 42.10615 18.39978 34137 ft 404 kts 315°
2026-05-04 12:12 42.14548 18.34526 34146 ft 405 kts 315°
2026-05-04 12:14 42.30285 18.12599 34171 ft 407 kts 315°
2026-05-04 12:15 42.34218 18.07090 34173 ft 407 kts 315°
2026-05-04 12:15 42.38144 18.01580 34173 ft 407 kts 315°
2026-05-04 12:16 42.42076 17.96058 34177 ft 407 kts 315°
2026-05-04 12:16 42.45989 17.90544 34175 ft 408 kts 315°
2026-05-04 12:17 42.49912 17.84990 34175 ft 408 kts 315°
2026-05-04 12:17 42.53843 17.79429 34173 ft 408 kts 315°
2026-05-04 12:18 42.57769 17.73870 34150 ft 408 kts 314°
2026-05-04 12:18 42.61697 17.68310 34149 ft 409 kts 314°
2026-05-04 12:19 42.65636 17.62714 34152 ft 409 kts 314°
2026-05-04 12:19 42.69544 17.57143 34153 ft 410 kts 314°
2026-05-04 12:20 42.73498 17.51489 34156 ft 410 kts 314°
2026-05-04 12:20 42.77407 17.45890 34158 ft 411 kts 314°
2026-05-04 12:21 42.81343 17.40245 34164 ft 411 kts 314°
2026-05-04 12:21 42.85282 17.34586 34147 ft 412 kts 314°
2026-05-04 12:22 42.89246 17.28881 34150 ft 412 kts 314°
2026-05-04 12:22 42.93190 17.23189 34154 ft 413 kts 314°
2026-05-04 12:23 42.97138 17.17485 34154 ft 413 kts 314°
2026-05-04 12:23 43.01065 17.11803 34152 ft 413 kts 314°
2026-05-04 12:24 43.05011 17.06085 34156 ft 413 kts 314°
2026-05-04 12:24 43.08965 17.00340 34133 ft 415 kts 313°
2026-05-04 12:25 43.12925 16.94567 34127 ft 416 kts 313°
2026-05-04 12:25 43.16890 16.88780 34145 ft 416 kts 313°
2026-05-04 12:26 43.20852 16.82987 34151 ft 416 kts 313°
2026-05-04 12:26 43.24812 16.77188 34153 ft 416 kts 313°
2026-05-04 12:27 43.28739 16.71419 34155 ft 416 kts 313°
2026-05-04 12:27 43.32692 16.65593 34131 ft 417 kts 313°
2026-05-04 12:28 43.36661 16.59731 34130 ft 419 kts 313°
2026-05-04 12:28 43.39963 16.54851 34132 ft 419 kts 313°
2026-05-04 12:29 43.43933 16.48978 34149 ft 419 kts 313°
2026-05-04 12:29 43.47910 16.43079 34154 ft 419 kts 313°
2026-05-04 12:30 43.51876 16.37182 34154 ft 419 kts 313°
2026-05-04 12:30 43.55839 16.31289 34140 ft 420 kts 313°
2026-05-04 12:31 43.59808 16.25359 34139 ft 421 kts 312°
2026-05-04 12:31 43.63777 16.19414 34145 ft 422 kts 313°
2026-05-04 12:32 43.69752 16.10472 34151 ft 422 kts 312°
2026-05-04 12:33 43.73721 16.04498 34158 ft 422 kts 312°
2026-05-04 12:33 43.77696 15.98505 34147 ft 423 kts 312°
2026-05-04 12:34 43.81685 15.92489 34145 ft 424 kts 312°
2026-05-04 12:34 43.85667 15.86462 34143 ft 425 kts 312°
2026-05-04 12:35 43.89656 15.80411 34152 ft 425 kts 312°
2026-05-04 12:35 43.93639 15.74349 34158 ft 425 kts 312°
2026-05-04 12:36 43.97626 15.68275 34166 ft 425 kts 312°
2026-05-04 12:36 44.01616 15.62199 34158 ft 427 kts 312°
2026-05-04 12:37 44.05626 15.56076 34145 ft 428 kts 312°
2026-05-04 12:37 44.09599 15.49974 34148 ft 428 kts 311°
2026-05-04 12:38 44.13622 15.43791 34151 ft 428 kts 311°
2026-05-04 12:38 44.17597 15.37675 34153 ft 428 kts 311°
2026-05-04 12:39 44.21599 15.31501 34152 ft 430 kts 311°
2026-05-04 12:39 44.25602 15.25307 34153 ft 430 kts 311°
2026-05-04 12:40 44.29612 15.19097 34153 ft 430 kts 311°
2026-05-04 12:40 44.33619 15.12874 34153 ft 430 kts 311°
2026-05-04 12:41 44.37626 15.06637 34141 ft 432 kts 311°
2026-05-04 12:41 44.41634 15.00375 34143 ft 432 kts 311°
2026-05-04 12:42 44.45644 14.94094 34148 ft 433 kts 311°
2026-05-04 12:42 44.49661 14.87808 34151 ft 433 kts 311°
2026-05-04 12:43 44.53671 14.81523 34152 ft 433 kts 311°
2026-05-04 12:43 44.57681 14.75215 34151 ft 433 kts 311°
2026-05-04 12:44 44.61683 14.68898 34154 ft 433 kts 311°
2026-05-04 12:44 44.65655 14.62616 34153 ft 432 kts 311°
2026-05-04 12:45 44.69647 14.56291 34156 ft 432 kts 310°
2026-05-04 12:45 44.73632 14.49951 34144 ft 432 kts 310°
2026-05-04 12:46 44.77615 14.43601 34139 ft 433 kts 310°
2026-05-04 12:46 44.81615 14.37230 34133 ft 434 kts 310°
2026-05-04 12:47 44.85617 14.30850 34139 ft 434 kts 310°
2026-05-04 12:47 44.89611 14.24458 34140 ft 434 kts 310°
2026-05-04 12:48 44.93592 14.18059 34132 ft 435 kts 310°
2026-05-04 12:48 44.97588 14.11610 34121 ft 436 kts 310°
2026-05-04 12:49 45.01593 14.05134 34125 ft 437 kts 310°
2026-05-04 12:49 45.05576 13.98691 34126 ft 437 kts 310°
2026-05-04 12:50 45.09580 13.92205 34134 ft 438 kts 310°
2026-05-04 12:50 45.13601 13.85680 34122 ft 439 kts 310°
2026-05-04 12:51 45.17617 13.79136 34126 ft 440 kts 309°
2026-05-04 12:51 45.21624 13.72588 34130 ft 439 kts 310°
2026-05-04 12:52 45.25602 13.66072 34130 ft 439 kts 309°
2026-05-04 12:52 45.29595 13.59511 34128 ft 440 kts 309°
2026-05-04 12:53 45.33629 13.52883 34107 ft 441 kts 309°
2026-05-04 12:53 45.37653 13.46266 34116 ft 442 kts 309°
2026-05-04 12:54 45.41639 13.39687 34115 ft 442 kts 309°
2026-05-04 12:54 45.45655 13.33037 34118 ft 443 kts 309°
2026-05-04 12:55 45.49795 13.26458 34118 ft 445 kts 315°
2026-05-04 12:55 45.54266 13.20349 34113 ft 445 kts 315°
2026-05-04 12:56 45.58742 13.14213 34110 ft 445 kts 314°
2026-05-04 12:56 45.63209 13.08070 34118 ft 445 kts 314°
2026-05-04 12:57 45.67648 13.01964 34114 ft 445 kts 314°
2026-05-04 12:57 45.72110 12.95811 34115 ft 446 kts 314°
2026-05-04 12:58 45.76565 12.89640 34102 ft 446 kts 314°
2026-05-04 12:58 45.81014 12.83459 34098 ft 446 kts 314°
2026-05-04 12:59 45.85481 12.77247 34106 ft 446 kts 314°
2026-05-04 12:59 45.89935 12.71047 34116 ft 446 kts 314°
2026-05-04 13:00 45.94393 12.64824 34099 ft 447 kts 314°
2026-05-04 13:00 45.98833 12.58596 34097 ft 448 kts 314°
2026-05-04 13:01 46.03311 12.52301 34100 ft 448 kts 314°
2026-05-04 13:01 46.07756 12.46051 34100 ft 448 kts 314°
2026-05-04 13:02 46.12219 12.39763 34081 ft 448 kts 313°
2026-05-04 13:02 46.16684 12.33440 34088 ft 449 kts 313°
2026-05-04 13:03 46.21147 12.27116 34073 ft 450 kts 313°
2026-05-04 13:03 46.25617 12.20770 34074 ft 450 kts 313°
2026-05-04 13:04 46.30094 12.14396 34083 ft 451 kts 313°
2026-05-04 13:04 46.34565 12.08006 34108 ft 451 kts 313°
2026-05-04 13:05 46.39034 12.01606 34099 ft 453 kts 313°
2026-05-04 13:05 46.43516 11.95184 34091 ft 453 kts 313°
2026-05-04 13:06 46.47958 11.88783 34088 ft 453 kts 312°
2026-05-04 13:06 46.52432 11.82332 34084 ft 453 kts 313°
2026-05-04 13:07 46.56903 11.75883 34063 ft 453 kts 313°
2026-05-04 13:07 46.60641 11.70476 34073 ft 453 kts 313°
2026-05-04 13:08 46.65101 11.64005 34070 ft 452 kts 312°
2026-05-04 13:08 46.69551 11.57524 34076 ft 452 kts 312°
2026-05-04 13:09 46.73973 11.51071 34062 ft 452 kts 312°
2026-05-04 13:09 46.78418 11.44576 34102 ft 452 kts 312°
2026-05-04 13:10 46.82890 11.38020 34080 ft 454 kts 312°
2026-05-04 13:10 46.87340 11.31458 34094 ft 454 kts 311°
2026-05-04 13:11 46.91753 11.24938 34074 ft 454 kts 312°
2026-05-04 13:11 46.96713 11.19156 34077 ft 460 kts 328°
2026-05-04 13:12 47.02320 11.14593 34057 ft 461 kts 328°
2026-05-04 13:12 47.07931 11.10004 34067 ft 461 kts 328°
2026-05-04 13:13 47.13535 11.05421 34037 ft 461 kts 328°
2026-05-04 13:13 47.19143 11.00824 34022 ft 461 kts 328°
2026-05-04 13:14 47.24740 10.96220 34021 ft 461 kts 328°
2026-05-04 13:14 47.30334 10.91595 34024 ft 461 kts 328°
2026-05-04 13:15 47.35918 10.86971 34019 ft 459 kts 328°
2026-05-04 13:15 47.41500 10.82349 34027 ft 459 kts 327°
2026-05-04 13:16 47.47076 10.77715 34016 ft 459 kts 327°
2026-05-04 13:16 47.52603 10.73107 34033 ft 458 kts 327°
2026-05-04 13:17 47.58156 10.68462 34024 ft 457 kts 327°
2026-05-04 13:17 47.63700 10.63814 34022 ft 457 kts 327°
2026-05-04 13:18 47.69235 10.59171 34017 ft 457 kts 327°
2026-05-04 13:18 47.74752 10.54532 34025 ft 456 kts 327°
2026-05-04 13:19 47.80267 10.49877 34019 ft 456 kts 327°
2026-05-04 13:19 47.85784 10.45213 34017 ft 455 kts 327°
2026-05-04 13:20 47.91388 10.40812 34011 ft 457 kts 335°
2026-05-04 13:20 47.97300 10.37295 34010 ft 458 kts 335°
2026-05-04 13:21 48.03215 10.33785 34013 ft 457 kts 335°
2026-05-04 13:21 48.09132 10.30244 34012 ft 457 kts 335°
2026-05-04 13:22 48.14992 10.26720 34018 ft 457 kts 335°
2026-05-04 13:22 48.20814 10.22812 34022 ft 453 kts 325°
2026-05-04 13:23 48.25824 10.17179 34024 ft 449 kts 317°
2026-05-04 13:23 48.30672 10.11292 34022 ft 449 kts 317°
2026-05-04 13:24 48.35507 10.05423 34018 ft 448 kts 317°
2026-05-04 13:24 48.40361 9.99518 34016 ft 448 kts 317°
2026-05-04 13:25 48.47617 9.90648 34025 ft 448 kts 317°
2026-05-04 13:25 48.52456 9.84713 34012 ft 448 kts 317°
2026-05-04 13:26 48.57283 9.78768 34004 ft 448 kts 317°
2026-05-04 13:26 48.62102 9.72787 34001 ft 448 kts 316°
2026-05-04 13:27 48.66771 9.66668 33999 ft 447 kts 315°
2026-05-04 13:27 48.71214 9.60715 34028 ft 446 kts 314°
2026-05-04 13:28 48.75881 9.54501 34013 ft 447 kts 314°
2026-05-04 13:28 48.80566 9.48312 34007 ft 447 kts 314°
2026-05-04 13:29 48.85256 9.42099 34010 ft 447 kts 314°
2026-05-04 13:29 48.89938 9.35893 34002 ft 448 kts 317°
2026-05-04 13:30 48.95319 9.30958 34005 ft 455 kts 329°
2026-05-04 13:30 48.98116 9.28843 33996 ft 443 kts 329°
2026-05-04 13:30 49.00852 9.26780 33681 ft 436 kts 328°
2026-05-04 13:31 49.03611 9.24684 32271 ft 453 kts 328°
2026-05-04 13:31 49.06475 9.22491 31084 ft 465 kts 328°
2026-05-04 13:31 49.09368 9.20276 30341 ft 464 kts 329°
2026-05-04 13:31 49.12248 9.18073 29570 ft 463 kts 329°
2026-05-04 13:32 49.15151 9.15949 28793 ft 463 kts 334°
2026-05-04 13:32 49.18223 9.14424 28037 ft 466 kts 343°
2026-05-04 13:32 49.21433 9.13641 27297 ft 469 kts 352°
2026-05-04 13:32 49.24705 9.13629 26573 ft 470 kts
2026-05-04 13:33 49.27956 9.14101 25877 ft 468 kts
2026-05-04 13:33 49.31186 9.14571 25257 ft 464 kts
2026-05-04 13:33 49.34353 9.15023 25028 ft 450 kts
2026-05-04 13:33 49.37418 9.15460 24977 ft 432 kts
2026-05-04 13:34 49.40359 9.15886 24713 ft 423 kts
2026-05-04 13:34 49.43295 9.16307 24195 ft 421 kts
2026-05-04 13:34 49.46212 9.16715 23687 ft 420 kts
2026-05-04 13:34 49.49122 9.17122 23106 ft 419 kts
2026-05-04 13:35 49.52022 9.17537 22513 ft 417 kts
2026-05-04 13:35 49.57733 9.18367 21370 ft 412 kts
2026-05-04 13:35 49.60578 9.18788 20812 ft 409 kts
2026-05-04 13:36 49.63358 9.19700 20269 ft 408 kts 17°
2026-05-04 13:36 49.65978 9.21373 19725 ft 406 kts 28°
2026-05-04 13:36 49.68348 9.23717 19196 ft 403 kts 39°
2026-05-04 13:36 49.70411 9.26604 18677 ft 399 kts 44°
2026-05-04 13:37 49.72630 9.29227 18128 ft 396 kts 31°
2026-05-04 13:37 49.75120 9.30805 17560 ft 391 kts 11°
2026-05-04 13:37 49.77795 9.31013 17010 ft 382 kts 350°
2026-05-04 13:37 49.79521 9.30361 16674 ft 375 kts 337°
2026-05-04 13:38 49.82680 9.28319 15998 ft 369 kts 334°
2026-05-04 13:38 49.85047 9.26705 15489 ft 365 kts 334°
2026-05-04 13:38 49.87326 9.25138 15000 ft 360 kts 334°
2026-05-04 13:38 49.89589 9.23569 14516 ft 353 kts 334°
2026-05-04 13:39 49.91817 9.22012 14039 ft 347 kts 334°
2026-05-04 13:39 49.94000 9.20479 13521 ft 341 kts 334°
2026-05-04 13:39 49.96145 9.18971 13013 ft 335 kts 334°
2026-05-04 13:39 49.98261 9.17480 12478 ft 331 kts 334°
2026-05-04 13:40 50.00343 9.16012 11963 ft 326 kts 334°
2026-05-04 13:40 50.02386 9.14578 11470 ft 318 kts 334°
2026-05-04 13:40 50.04379 9.13181 10957 ft 312 kts 334°
2026-05-04 13:40 50.06355 9.11800 10345 ft 311 kts 334°
2026-05-04 13:41 50.08319 9.10439 9739 ft 309 kts 334°
2026-05-04 13:41 50.10278 9.09093 9106 ft 306 kts 334°
2026-05-04 13:41 50.12208 9.07765 8532 ft 300 kts 334°
2026-05-04 13:42 50.15975 9.05181 7458 ft 290 kts 334°
2026-05-04 13:42 50.17786 9.03951 6970 ft 284 kts 334°
2026-05-04 13:42 50.19579 9.02716 6471 ft 278 kts 330°
2026-05-04 13:42 50.21072 9.00890 5967 ft 266 kts 303°
2026-05-04 13:43 50.21776 8.98289 5593 ft 259 kts 275°
2026-05-04 13:43 50.21741 8.96452 5372 ft 255 kts 256°
2026-05-04 13:43 50.20921 8.94063 5043 ft 252 kts 224°
2026-05-04 13:43 50.19145 8.91711 4609 ft 250 kts 221°
2026-05-04 13:44 50.18263 8.90562 4375 ft 248 kts 220°
2026-05-04 13:44 50.16951 8.88852 4142 ft 243 kts 221°
2026-05-04 13:44 50.15675 8.87191 3993 ft 233 kts 221°
2026-05-04 13:44 50.14470 8.85624 3999 ft 224 kts 221°
2026-05-04 13:45 50.13270 8.84062 3894 ft 224 kts 221°
2026-05-04 13:45 50.12080 8.82516 3671 ft 223 kts 221°
2026-05-04 13:45 50.10894 8.80974 3426 ft 221 kts 221°
2026-05-04 13:45 50.09708 8.79435 3172 ft 222 kts 221°
2026-05-04 13:46 50.08691 8.77683 2920 ft 216 kts 239°
2026-05-04 13:46 50.08029 8.75569 2651 ft 216 kts 248°
2026-05-04 13:46 50.07512 8.73453 2374 ft 202 kts 250°
2026-05-04 13:46 50.07045 8.71469 2100 ft 187 kts 249°
2026-05-04 13:47 50.06742 8.69591 1758 ft 174 kts 263°
2026-05-04 13:47 50.06567 8.67844 1533 ft 155 kts 258°
2026-05-04 13:47 50.06309 8.66282 1275 ft 146 kts 252°
2026-05-04 13:47 50.05958 8.64777 1126 ft 149 kts 247°
2026-05-04 13:48 50.05578 8.63288 956 ft 153 kts 249°
2026-05-04 13:48 50.05225 8.61764 747 ft 148 kts 249°
2026-05-04 13:48 50.04897 8.60285 599 ft 144 kts 249°
2026-05-04 13:48 50.04551 8.58862 447 ft 139 kts 248°
2026-05-04 13:49 50.04236 8.57557 365 ft 116 kts 250°
2026-05-04 13:49 50.04015 8.56619 360 ft 68 kts 251°
2026-05-04 13:49 50.03993 8.56341 352 ft 13 kts 284°
2026-05-04 13:49 50.04012 8.56203 359 ft 10 kts 281°
2026-05-04 13:50 50.04044 8.56141 354 ft 5 kts 332°
2026-05-04 13:50 50.04069 8.56132 358 ft 0 kts 355°
2026-05-04 13:50 50.04074 8.56131 356 ft 3 kts 359°
2026-05-04 13:50 50.04098 8.56164 362 ft 7 kts 56°
2026-05-04 13:51 50.04126 8.56271 359 ft 13 kts 69°
2026-05-04 13:51 50.04159 8.56408 359 ft 14 kts 69°
2026-05-04 13:51 50.04192 8.56547 361 ft 14 kts 70°
2026-05-04 13:51 50.04234 8.56627 359 ft 9 kts 11°
2026-05-04 13:52 50.04359 8.56564 359 ft 10 kts 326°
2026-05-04 13:52 50.04361 8.56458 359 ft 12 kts 253°
2026-05-04 13:52 50.04328 8.56310 358 ft 16 kts 250°
2026-05-04 13:53 50.04288 8.56142 357 ft 16 kts 250°
2026-05-04 13:53 50.04266 8.56003 354 ft 12 kts 281°
2026-05-04 13:53 50.04335 8.55933 360 ft 12 kts 340°
2026-05-04 13:54 50.04503 8.55915 359 ft 14 kts 18°
2026-05-04 13:54 50.04584 8.55992 361 ft 15 kts 65°
2026-05-04 13:54 50.04657 8.56295 360 ft 13 kts 70°
2026-05-04 13:55 50.04685 8.56412 359 ft 11 kts 70°
2026-05-04 13:55 50.04730 8.56519 356 ft 1 kts 338°
2026-05-04 13:55 50.04745 8.56513 360 ft 3 kts 344°
2026-05-04 13:56 50.04770 8.56499 359 ft 4 kts 340°
2026-05-04 13:56 50.04782 8.56493 360 ft 1 kts 340°
2026-05-04 13:56 50.04784 8.56491 359 ft 0 kts 340°